Time,TemperatureF,DewpointF,PressureIn,WindDirection,WindDirectionDegrees,WindSpeedMPH,WindSpeedGustMPH,Humidity,HourlyPrecipIn,Conditions,Clouds,dailyrainin,SolarRadiationWatts/m^2,SoftwareType,DateUTC
2013-04-07 00:02:00,37.0,34.0,-100.00,West,275,4.0,15.0,89,0.00,,,0.01,0.000000,,2013-04-07 06:02:00,
2013-04-07 00:12:00,37.0,34.0,-100.00,West,275,4.0,15.0,89,0.00,,,0.01,0.000000,,2013-04-07 06:12:00,
2013-04-07 00:43:00,36.0,33.0,-100.00,South,174,5.0,10.0,87,0.00,,,0.01,0.000000,,2013-04-07 06:43:00,
2013-04-07 00:52:00,36.0,33.0,-100.00,South,174,5.0,10.0,87,0.00,,,0.01,0.000000,,2013-04-07 06:52:00,
2013-04-07 01:02:00,36.0,33.0,-100.00,South,174,5.0,10.0,87,0.00,,,0.01,0.000000,,2013-04-07 07:02:00,
2013-04-07 01:12:00,36.0,33.0,-100.00,South,174,5.0,10.0,87,0.00,,,0.01,0.000000,,2013-04-07 07:12:00,
2013-04-07 01:33:00,36.0,32.0,-100.00,SE,139,2.0,8.0,85,0.00,,,0.01,0.000000,,2013-04-07 07:33:00,
2013-04-07 01:42:00,36.0,32.0,-100.00,SE,139,2.0,8.0,85,0.00,,,0.01,0.000000,,2013-04-07 07:42:00,
2013-04-07 01:52:00,36.0,32.0,-100.00,SE,139,2.0,8.0,85,0.00,,,0.01,0.000000,,2013-04-07 07:52:00,
2013-04-07 02:02:00,36.0,32.0,-100.00,SE,139,2.0,8.0,85,0.00,,,0.01,0.000000,,2013-04-07 08:02:00,
2013-04-07 02:12:00,36.0,32.0,-100.00,SE,139,2.0,8.0,85,0.00,,,0.01,0.000000,,2013-04-07 08:12:00,
2013-04-07 02:33:00,35.0,32.0,-100.00,South,174,4.0,6.0,87,0.00,,,0.01,0.000000,,2013-04-07 08:33:00,
2013-04-07 02:43:00,35.0,32.0,-100.00,South,174,4.0,6.0,87,0.00,,,0.01,0.000000,,2013-04-07 08:43:00,
2013-04-07 02:53:00,35.0,32.0,-100.00,South,174,4.0,6.0,87,0.00,,,0.01,0.000000,,2013-04-07 08:53:00,
2013-04-07 03:02:00,35.0,32.0,-100.00,South,174,4.0,6.0,87,0.00,,,0.01,0.000000,,2013-04-07 09:02:00,
2013-04-07 03:12:00,35.0,32.0,-100.00,South,174,4.0,6.0,87,0.00,,,0.01,0.000000,,2013-04-07 09:12:00,
2013-04-07 03:13:00,36.0,33.0,-100.00,SSE,165,0.0,8.0,87,0.00,,,0.01,0.000000,,2013-04-07 09:13:00,
2013-04-07 03:34:00,36.0,33.0,-100.00,SSE,165,0.0,8.0,87,0.00,,,0.01,0.000000,,2013-04-07 09:34:00,
2013-04-07 03:44:00,36.0,33.0,-100.00,SSE,165,0.0,8.0,87,0.00,,,0.01,0.000000,,2013-04-07 09:44:00,
2013-04-07 03:54:00,36.0,33.0,-100.00,SSE,165,0.0,8.0,87,0.00,,,0.01,0.000000,,2013-04-07 09:54:00,
2013-04-07 04:04:00,36.0,33.0,-100.00,SSE,165,0.0,8.0,87,0.00,,,0.01,0.000000,,2013-04-07 10:04:00,
2013-04-07 04:43:00,34.0,31.0,-100.00,NW,321,2.0,5.0,89,0.00,,,0.01,0.000000,,2013-04-07 10:43:00,
2013-04-07 04:54:00,34.0,31.0,-100.00,NW,321,2.0,5.0,89,0.00,,,0.01,0.000000,,2013-04-07 10:54:00,
2013-04-07 05:03:00,34.0,31.0,-100.00,NW,321,2.0,5.0,89,0.00,,,0.01,0.000000,,2013-04-07 11:03:00,
2013-04-07 05:12:00,34.0,31.0,-100.00,NW,321,2.0,5.0,89,0.00,,,0.01,0.000000,,2013-04-07 11:12:00,
2013-04-07 05:33:00,34.0,31.0,-100.00,West,259,3.0,10.0,90,0.00,,,0.01,0.000000,,2013-04-07 11:33:00,
2013-04-07 05:43:00,34.0,31.0,-100.00,West,259,3.0,10.0,90,0.00,,,0.01,0.000000,,2013-04-07 11:43:00,
2013-04-07 05:53:00,34.0,31.0,-100.00,West,259,3.0,10.0,90,0.00,,,0.01,0.000000,,2013-04-07 11:53:00,
2013-04-07 06:02:00,34.0,31.0,-100.00,West,259,3.0,10.0,90,0.00,,,0.01,0.000000,,2013-04-07 12:02:00,
2013-04-07 06:12:00,34.0,31.0,-100.00,West,259,3.0,10.0,90,0.00,,,0.01,0.000000,,2013-04-07 12:12:00,
2013-04-07 06:13:00,32.0,30.0,-100.00,NNW,341,3.0,6.0,94,0.00,,,0.01,0.000000,,2013-04-07 12:13:00,
2013-04-07 06:35:00,32.0,30.0,-100.00,NNW,341,3.0,6.0,94,0.00,,,0.01,0.000000,,2013-04-07 12:35:00,
2013-04-07 06:43:00,32.0,30.0,-100.00,NNW,341,3.0,6.0,94,0.00,,,0.01,0.000000,,2013-04-07 12:43:00,
2013-04-07 06:54:00,32.0,30.0,-100.00,NNW,341,3.0,6.0,94,0.00,,,0.01,0.000000,,2013-04-07 12:54:00,
2013-04-07 07:03:00,32.0,30.0,-100.00,NNW,341,3.0,6.0,94,0.00,,,0.01,0.000000,,2013-04-07 13:03:00,
2013-04-07 07:33:00,33.0,32.0,-100.00,ENE,58,1.0,6.0,96,0.00,,,0.01,10.000000,,2013-04-07 13:33:00,
2013-04-07 07:43:00,33.0,32.0,-100.00,ENE,58,1.0,6.0,96,0.00,,,0.01,10.000000,,2013-04-07 13:43:00,
2013-04-07 07:53:00,33.0,32.0,-100.00,ENE,58,1.0,6.0,96,0.00,,,0.01,10.000000,,2013-04-07 13:53:00,
2013-04-07 08:02:00,33.0,32.0,-100.00,ENE,58,1.0,6.0,96,0.00,,,0.01,10.000000,,2013-04-07 14:02:00,
2013-04-07 08:12:00,33.0,32.0,-100.00,ENE,58,1.0,6.0,96,0.00,,,0.01,10.000000,,2013-04-07 14:12:00,
2013-04-07 08:33:00,39.0,33.0,-100.00,South,180,1.0,5.0,80,0.00,,,0.01,182.000000,,2013-04-07 14:33:00,
2013-04-07 08:44:00,39.0,33.0,-100.00,South,180,1.0,5.0,80,0.00,,,0.01,182.000000,,2013-04-07 14:44:00,
2013-04-07 08:54:00,39.0,33.0,-100.00,South,180,1.0,5.0,80,0.00,,,0.01,182.000000,,2013-04-07 14:54:00,
2013-04-07 09:03:00,39.0,33.0,-100.00,South,180,1.0,5.0,80,0.00,,,0.01,182.000000,,2013-04-07 15:03:00,
2013-04-07 09:12:00,39.0,33.0,-100.00,South,180,1.0,5.0,80,0.00,,,0.01,182.000000,,2013-04-07 15:12:00,
2013-04-07 09:13:00,44.0,30.0,-100.00,SSW,193,2.0,6.0,58,0.00,,,0.01,440.000000,,2013-04-07 15:13:00,
2013-04-07 09:35:00,44.0,30.0,-100.00,SSW,193,2.0,6.0,58,0.00,,,0.01,440.000000,,2013-04-07 15:35:00,
2013-04-07 09:45:00,44.0,30.0,-100.00,SSW,193,2.0,6.0,58,0.00,,,0.01,440.000000,,2013-04-07 15:45:00,
2013-04-07 09:55:00,44.0,30.0,-100.00,SSW,193,2.0,6.0,58,0.00,,,0.01,440.000000,,2013-04-07 15:55:00,
2013-04-07 10:04:00,44.0,30.0,-100.00,SSW,193,2.0,6.0,58,0.00,,,0.01,440.000000,,2013-04-07 16:04:00,
2013-04-07 10:13:00,49.0,31.0,-100.00,SSW,205,6.0,14.0,49,0.00,,,0.01,680.000000,,2013-04-07 16:13:00,
2013-04-07 10:44:00,49.0,31.0,-100.00,SSW,205,6.0,14.0,49,0.00,,,0.01,680.000000,,2013-04-07 16:44:00,
2013-04-07 10:54:00,49.0,31.0,-100.00,SSW,205,6.0,14.0,49,0.00,,,0.01,680.000000,,2013-04-07 16:54:00,
2013-04-07 11:04:00,49.0,31.0,-100.00,SSW,205,6.0,14.0,49,0.00,,,0.01,680.000000,,2013-04-07 17:04:00,
2013-04-07 11:13:00,51.0,26.0,-100.00,SW,222,8.0,19.0,38,0.00,,,0.01,822.000000,,2013-04-07 17:13:00,
2013-04-07 11:43:00,51.0,26.0,-100.00,SW,222,8.0,19.0,38,0.00,,,0.01,822.000000,,2013-04-07 17:43:00,
2013-04-07 11:54:00,51.0,26.0,-100.00,SW,222,8.0,19.0,38,0.00,,,0.01,822.000000,,2013-04-07 17:54:00,
2013-04-07 12:02:00,51.0,26.0,-100.00,SW,222,8.0,19.0,38,0.00,,,0.01,822.000000,,2013-04-07 18:02:00,
2013-04-07 12:44:00,49.0,25.0,-100.00,SW,234,8.0,16.0,38,0.00,,,0.01,580.000000,,2013-04-07 18:44:00,
2013-04-07 12:53:00,49.0,25.0,-100.00,SW,234,8.0,16.0,38,0.00,,,0.01,580.000000,,2013-04-07 18:53:00,
2013-04-07 13:02:00,49.0,25.0,-100.00,SW,234,8.0,16.0,38,0.00,,,0.01,580.000000,,2013-04-07 19:02:00,
2013-04-07 13:12:00,49.0,25.0,-100.00,SW,234,8.0,16.0,38,0.00,,,0.01,580.000000,,2013-04-07 19:12:00,
2013-04-07 13:13:00,44.0,29.0,-100.00,North,7,6.0,19.0,56,0.00,,,0.01,406.000000,,2013-04-07 19:13:00,
2013-04-07 13:43:00,44.0,29.0,-100.00,North,7,6.0,19.0,56,0.00,,,0.01,406.000000,,2013-04-07 19:43:00,
2013-04-07 13:55:00,44.0,29.0,-100.00,North,7,6.0,19.0,56,0.00,,,0.01,406.000000,,2013-04-07 19:55:00,
2013-04-07 14:03:00,44.0,29.0,-100.00,North,7,6.0,19.0,56,0.00,,,0.01,406.000000,,2013-04-07 20:03:00,
2013-04-07 14:13:00,40.0,30.0,-100.00,NW,319,9.0,24.0,67,0.00,,,0.00,183.000000,,2013-04-07 20:13:00,
2013-04-07 14:44:00,40.0,30.0,-100.00,NW,319,9.0,24.0,67,0.00,,,0.00,183.000000,,2013-04-07 20:44:00,
2013-04-07 14:54:00,40.0,30.0,-100.00,NW,319,9.0,24.0,67,0.00,,,0.00,183.000000,,2013-04-07 20:54:00,
2013-04-07 15:03:00,40.0,30.0,-100.00,NW,319,9.0,24.0,67,0.00,,,0.00,183.000000,,2013-04-07 21:03:00,
2013-04-07 15:13:00,54.0,31.0,-100.00,South,189,7.0,19.0,41,0.00,,,0.00,772.000000,,2013-04-07 21:13:00,
2013-04-07 15:35:00,54.0,31.0,-100.00,South,189,7.0,19.0,41,0.00,,,0.00,772.000000,,2013-04-07 21:35:00,
2013-04-07 15:45:00,54.0,31.0,-100.00,South,189,7.0,19.0,41,0.00,,,0.00,772.000000,,2013-04-07 21:45:00,
2013-04-07 15:55:00,54.0,31.0,-100.00,South,189,7.0,19.0,41,0.00,,,0.00,772.000000,,2013-04-07 21:55:00,
2013-04-07 16:13:00,51.0,26.0,-100.00,SE,127,5.0,14.0,38,0.00,,,0.00,431.000000,,2013-04-07 22:13:00,
2013-04-07 16:44:00,51.0,26.0,-100.00,SE,127,5.0,14.0,38,0.00,,,0.00,431.000000,,2013-04-07 22:44:00,
2013-04-07 16:53:00,51.0,26.0,-100.00,SE,127,5.0,14.0,38,0.00,,,0.00,431.000000,,2013-04-07 22:53:00,
2013-04-07 17:03:00,51.0,26.0,-100.00,SE,127,5.0,14.0,38,0.00,,,0.00,431.000000,,2013-04-07 23:03:00,
2013-04-07 17:43:00,46.0,29.0,-100.00,NNW,332,9.0,25.0,52,0.00,,,0.00,138.000000,,2013-04-07 23:43:00,
2013-04-07 17:53:00,46.0,29.0,-100.00,NNW,332,9.0,25.0,52,0.00,,,0.00,138.000000,,2013-04-07 23:53:00,
2013-04-07 18:02:00,46.0,29.0,-100.00,NNW,332,9.0,25.0,52,0.00,,,0.00,138.000000,,2013-04-08 00:02:00,
2013-04-07 18:12:00,46.0,29.0,-100.00,NNW,332,9.0,25.0,52,0.00,,,0.00,138.000000,,2013-04-08 00:12:00,
2013-04-07 18:33:00,46.0,31.0,-100.00,NNW,335,11.0,19.0,55,0.00,,,-99.99,165.000000,,2013-04-08 00:33:00,
2013-04-07 18:43:00,46.0,31.0,-100.00,NNW,335,11.0,19.0,55,0.00,,,-99.99,165.000000,,2013-04-08 00:43:00,
2013-04-07 18:53:00,46.0,31.0,-100.00,NNW,335,11.0,19.0,55,0.00,,,-99.99,165.000000,,2013-04-08 00:53:00,
2013-04-07 19:03:00,46.0,31.0,-100.00,NNW,335,11.0,19.0,55,0.00,,,-99.99,165.000000,,2013-04-08 01:03:00,
2013-04-07 19:12:00,46.0,31.0,-100.00,NNW,335,11.0,19.0,55,0.00,,,-99.99,165.000000,,2013-04-08 01:12:00,
2013-04-07 19:44:00,43.0,29.0,-100.00,North,9,4.0,16.0,58,0.00,,,0.00,77.000000,,2013-04-08 01:44:00,
2013-04-07 19:55:00,43.0,29.0,-100.00,North,9,4.0,16.0,58,0.00,,,0.00,77.000000,,2013-04-08 01:55:00,
2013-04-07 20:03:00,43.0,29.0,-100.00,North,9,4.0,16.0,58,0.00,,,0.00,77.000000,,2013-04-08 02:03:00,
2013-04-07 20:12:00,43.0,29.0,-100.00,North,9,4.0,16.0,58,0.00,,,0.00,77.000000,,2013-04-08 02:12:00,
2013-04-07 20:13:00,41.0,29.0,-100.00,SSE,166,5.0,7.0,62,0.00,,,0.00,7.000000,,2013-04-08 02:13:00,
2013-04-07 20:48:00,41.0,29.0,-100.00,SSE,166,5.0,7.0,62,0.00,,,0.00,7.000000,,2013-04-08 02:48:00,
2013-04-07 20:54:00,41.0,29.0,-100.00,SSE,166,5.0,7.0,62,0.00,,,0.00,7.000000,,2013-04-08 02:54:00,
2013-04-07 21:08:00,41.0,29.0,-100.00,SSE,166,5.0,7.0,62,0.00,,,0.00,7.000000,,2013-04-08 03:08:00,
2013-04-07 21:57:00,39.0,28.0,-100.00,NNW,337,3.0,9.0,64,0.00,,,0.00,0.000000,,2013-04-08 03:57:00,
2013-04-07 22:03:00,39.0,28.0,-100.00,NNW,337,3.0,9.0,64,0.00,,,0.00,0.000000,,2013-04-08 04:03:00,
2013-04-07 22:12:00,39.0,28.0,-100.00,NNW,337,3.0,9.0,64,0.00,,,0.00,0.000000,,2013-04-08 04:12:00,
2013-04-07 22:34:00,37.0,30.0,-100.00,NNW,345,4.0,8.0,76,0.00,,,0.00,0.000000,,2013-04-08 04:34:00,
2013-04-07 22:44:00,37.0,30.0,-100.00,NNW,345,4.0,8.0,76,0.00,,,0.00,0.000000,,2013-04-08 04:44:00,
2013-04-07 22:53:00,37.0,30.0,-100.00,NNW,345,4.0,8.0,76,0.00,,,0.00,0.000000,,2013-04-08 04:53:00,
2013-04-07 23:02:00,37.0,30.0,-100.00,NNW,345,4.0,8.0,76,0.00,,,0.00,0.000000,,2013-04-08 05:02:00,
2013-04-07 23:12:00,37.0,30.0,-100.00,NNW,345,4.0,8.0,76,0.00,,,0.00,0.000000,,2013-04-08 05:12:00,
2013-04-07 23:42:00,36.0,31.0,-100.00,NNW,332,5.0,11.0,81,0.00,,,0.00,0.000000,,2013-04-08 05:42:00,
2013-04-07 23:52:00,36.0,31.0,-100.00,NNW,332,5.0,11.0,81,0.00,,,0.00,0.000000,,2013-04-08 05:52:00,